Time,TemperatureF,DewpointF,PressureIn,WindDirection,WindDirectionDegrees,WindSpeedMPH,WindSpeedGustMPH,Humidity,HourlyPrecipIn,Conditions,Clouds,dailyrainin,SoftwareType,DateUTC
2013-01-30 00:04:00,35.0,34.0,29.43,WNW,300,5.0,13.0,99,-99.99,,,-99.99,,2013-01-30 05:04:00,
2013-01-30 00:12:00,35.0,34.0,29.43,WNW,300,5.0,13.0,99,-99.99,,,-99.99,,2013-01-30 05:12:00,
2013-01-30 00:22:00,35.0,34.0,29.42,NNW,345,5.0,12.0,99,-99.99,,,-99.99,,2013-01-30 05:22:00,
2013-01-30 00:32:00,35.0,34.0,29.41,NW,320,7.0,17.0,99,-99.99,,,-99.99,,2013-01-30 05:32:00,
2013-01-30 00:43:00,35.0,34.0,29.41,NW,320,7.0,17.0,99,-99.99,,,-99.99,,2013-01-30 05:43:00,
2013-01-30 00:52:00,34.0,34.0,29.40,NW,325,6.0,16.0,99,-99.99,,,-99.99,,2013-01-30 05:52:00,
2013-01-30 01:02:00,34.0,34.0,29.40,NW,325,6.0,16.0,99,-99.99,,,-99.99,,2013-01-30 06:02:00,
2013-01-30 01:12:00,34.0,34.0,29.40,NW,325,6.0,16.0,99,-99.99,,,-99.99,,2013-01-30 06:12:00,
2013-01-30 01:22:00,34.0,34.0,29.39,NNW,345,10.0,16.0,99,-99.99,,,-99.99,,2013-01-30 06:22:00,
2013-01-30 01:32:00,34.0,34.0,29.40,NW,320,6.0,17.0,99,-99.99,,,-99.99,,2013-01-30 06:32:00,
2013-01-30 01:42:00,34.0,34.0,29.40,NW,320,6.0,17.0,99,-99.99,,,-99.99,,2013-01-30 06:42:00,
2013-01-30 01:52:00,34.0,34.0,29.40,NW,320,8.0,14.0,99,-99.99,,,-99.99,,2013-01-30 06:52:00,
2013-01-30 02:02:00,34.0,34.0,29.39,NW,310,7.0,20.0,99,-99.99,,,-99.99,,2013-01-30 07:02:00,
2013-01-30 02:12:00,34.0,34.0,29.39,NW,310,7.0,20.0,99,-99.99,,,-99.99,,2013-01-30 07:12:00,
2013-01-30 02:22:00,34.0,34.0,29.38,NW,305,6.0,16.0,99,-99.99,,,-99.99,,2013-01-30 07:22:00,
2013-01-30 02:32:00,34.0,34.0,29.38,NNW,330,6.0,16.0,99,-99.99,,,-99.99,,2013-01-30 07:32:00,
2013-01-30 02:42:00,34.0,34.0,29.38,NNW,330,6.0,16.0,99,-99.99,,,-99.99,,2013-01-30 07:42:00,
2013-01-30 02:52:00,34.0,34.0,29.38,NW,305,6.0,14.0,99,-99.99,,,-99.99,,2013-01-30 07:52:00,
2013-01-30 03:02:00,34.0,33.0,29.38,WNW,295,11.0,19.0,99,-99.99,,,-99.99,,2013-01-30 08:02:00,
2013-01-30 03:11:00,34.0,33.0,29.38,WNW,295,11.0,19.0,99,-99.99,,,-99.99,,2013-01-30 08:11:00,
2013-01-30 03:22:00,34.0,34.0,29.38,NNW,340,8.0,20.0,99,-99.99,,,-99.99,,2013-01-30 08:22:00,
2013-01-30 03:32:00,34.0,34.0,29.38,NW,325,5.0,19.0,99,-99.99,,,-99.99,,2013-01-30 08:32:00,
2013-01-30 03:42:00,34.0,34.0,29.38,NW,325,5.0,19.0,99,-99.99,,,-99.99,,2013-01-30 08:42:00,
2013-01-30 03:52:00,34.0,34.0,29.36,NW,315,6.0,19.0,99,-99.99,,,-99.99,,2013-01-30 08:52:00,
2013-01-30 04:02:00,34.0,34.0,29.34,NW,325,10.0,21.0,99,-99.99,,,-99.99,,2013-01-30 09:02:00,
2013-01-30 04:12:00,34.0,34.0,29.34,NW,325,10.0,21.0,99,-99.99,,,-99.99,,2013-01-30 09:12:00,
2013-01-30 04:22:00,34.0,34.0,29.34,NNW,345,9.0,18.0,99,-99.99,,,-99.99,,2013-01-30 09:22:00,
2013-01-30 04:32:00,34.0,34.0,29.34,NNW,340,9.0,21.0,99,-99.99,,,-99.99,,2013-01-30 09:32:00,
2013-01-30 04:42:00,34.0,34.0,29.34,NNW,340,9.0,21.0,99,-99.99,,,-99.99,,2013-01-30 09:42:00,
2013-01-30 04:51:00,34.0,34.0,29.35,NW,305,9.0,21.0,98,-99.99,,,-99.99,,2013-01-30 09:51:00,
2013-01-30 05:02:00,34.0,34.0,29.33,NNW,335,11.0,19.0,98,-99.99,,,-99.99,,2013-01-30 10:02:00,
2013-01-30 05:12:00,34.0,34.0,29.33,NNW,335,11.0,19.0,98,-99.99,,,-99.99,,2013-01-30 10:12:00,
2013-01-30 05:21:00,34.0,34.0,29.33,NW,325,11.0,23.0,98,-99.99,,,-99.99,,2013-01-30 10:21:00,
2013-01-30 05:32:00,34.0,34.0,29.33,NW,325,11.0,23.0,98,-99.99,,,-99.99,,2013-01-30 10:32:00,
2013-01-30 05:52:00,34.0,33.0,29.32,NNW,340,6.0,21.0,98,-99.99,,,-99.99,,2013-01-30 10:52:00,
2013-01-30 06:02:00,34.0,33.0,29.32,NNW,330,4.0,18.0,98,-99.99,,,-99.99,,2013-01-30 11:02:00,
2013-01-30 06:11:00,34.0,33.0,29.32,NNW,330,4.0,18.0,98,-99.99,,,-99.99,,2013-01-30 11:11:00,
2013-01-30 06:22:00,34.0,33.0,29.32,NNW,340,6.0,14.0,98,-99.99,,,-99.99,,2013-01-30 11:22:00,
2013-01-30 06:33:00,34.0,33.0,29.32,WNW,300,9.0,12.0,98,-99.99,,,-99.99,,2013-01-30 11:33:00,
2013-01-30 06:42:00,34.0,33.0,29.32,WNW,300,9.0,12.0,98,-99.99,,,-99.99,,2013-01-30 11:42:00,
2013-01-30 06:52:00,34.0,33.0,29.32,WNW,300,6.0,12.0,98,-99.99,,,-99.99,,2013-01-30 11:52:00,
2013-01-30 07:02:00,34.0,33.0,29.32,WNW,295,6.0,16.0,98,-99.99,,,-99.99,,2013-01-30 12:02:00,
2013-01-30 07:12:00,34.0,33.0,29.32,WNW,295,6.0,16.0,98,-99.99,,,-99.99,,2013-01-30 12:12:00,
2013-01-30 07:22:00,34.0,33.0,29.32,NNW,330,5.0,14.0,98,-99.99,,,-99.99,,2013-01-30 12:22:00,
2013-01-30 07:33:00,34.0,33.0,29.32,NW,305,8.0,15.0,98,-99.99,,,-99.99,,2013-01-30 12:33:00,
2013-01-30 07:43:00,34.0,33.0,29.32,NW,305,8.0,15.0,98,-99.99,,,-99.99,,2013-01-30 12:43:00,
2013-01-30 08:03:00,34.0,33.0,29.30,North,5,5.0,13.0,98,-99.99,,,-99.99,,2013-01-30 13:03:00,
2013-01-30 08:12:00,34.0,33.0,29.30,North,5,5.0,13.0,98,-99.99,,,-99.99,,2013-01-30 13:12:00,
2013-01-30 08:23:00,34.0,33.0,29.28,NW,305,8.0,16.0,97,-99.99,,,-99.99,,2013-01-30 13:23:00,
2013-01-30 08:33:00,34.0,33.0,29.30,WNW,295,6.0,14.0,97,-99.99,,,-99.99,,2013-01-30 13:33:00,
2013-01-30 08:43:00,34.0,33.0,29.30,WNW,295,6.0,14.0,97,-99.99,,,-99.99,,2013-01-30 13:43:00,
2013-01-30 08:52:00,34.0,33.0,29.31,NNW,345,10.0,17.0,97,-99.99,,,-99.99,,2013-01-30 13:52:00,
2013-01-30 09:03:00,34.0,33.0,29.32,NNW,345,4.0,13.0,97,-99.99,,,-99.99,,2013-01-30 14:03:00,
2013-01-30 09:12:00,34.0,33.0,29.32,NNW,345,4.0,13.0,97,-99.99,,,-99.99,,2013-01-30 14:12:00,
2013-01-30 09:23:00,33.0,33.0,29.32,NW,315,4.0,14.0,97,-99.99,,,-99.99,,2013-01-30 14:23:00,
2013-01-30 09:33:00,33.0,32.0,29.32,NNW,335,6.0,11.0,96,-99.99,,,-99.99,,2013-01-30 14:33:00,
2013-01-30 09:42:00,33.0,32.0,29.32,NNW,335,6.0,11.0,96,-99.99,,,-99.99,,2013-01-30 14:42:00,
2013-01-30 09:52:00,33.0,32.0,29.30,NW,315,5.0,14.0,96,-99.99,,,-99.99,,2013-01-30 14:52:00,
2013-01-30 10:03:00,33.0,32.0,29.30,NNW,335,4.0,12.0,96,-99.99,,,-99.99,,2013-01-30 15:03:00,
2013-01-30 10:12:00,33.0,32.0,29.30,NNW,335,4.0,12.0,96,-99.99,,,-99.99,,2013-01-30 15:12:00,
2013-01-30 10:23:00,33.0,32.0,29.28,WNW,290,4.0,16.0,96,-99.99,,,-99.99,,2013-01-30 15:23:00,
2013-01-30 10:33:00,33.0,32.0,29.28,NW,320,6.0,15.0,96,-99.99,,,-99.99,,2013-01-30 15:33:00,
2013-01-30 10:43:00,33.0,32.0,29.28,NW,320,6.0,15.0,96,-99.99,,,-99.99,,2013-01-30 15:43:00,
2013-01-30 10:53:00,33.0,32.0,29.28,NW,320,5.0,14.0,96,-99.99,,,-99.99,,2013-01-30 15:53:00,
2013-01-30 11:03:00,33.0,32.0,29.28,North,350,5.0,17.0,96,-99.99,,,-99.99,,2013-01-30 16:03:00,
2013-01-30 11:13:00,33.0,32.0,29.28,North,350,5.0,17.0,96,-99.99,,,-99.99,,2013-01-30 16:13:00,
2013-01-30 11:23:00,33.0,32.0,29.28,NW,325,4.0,13.0,95,-99.99,,,-99.99,,2013-01-30 16:23:00,
2013-01-30 11:32:00,33.0,31.0,29.28,NW,315,4.0,14.0,95,-99.99,,,-99.99,,2013-01-30 16:32:00,
2013-01-30 11:42:00,33.0,31.0,29.28,NW,315,4.0,14.0,95,-99.99,,,-99.99,,2013-01-30 16:42:00,
2013-01-30 11:52:00,33.0,31.0,29.28,NW,315,6.0,14.0,95,-99.99,,,-99.99,,2013-01-30 16:52:00,
2013-01-30 12:03:00,33.0,31.0,29.28,NW,315,6.0,14.0,95,-99.99,,,-99.99,,2013-01-30 17:03:00,
2013-01-30 12:13:00,33.0,31.0,29.28,NW,315,6.0,14.0,95,-99.99,,,-99.99,,2013-01-30 17:13:00,
2013-01-30 12:23:00,32.0,31.0,29.27,NW,325,6.0,17.0,96,-99.99,,,-99.99,,2013-01-30 17:23:00,
2013-01-30 12:33:00,32.0,31.0,29.26,WNW,300,6.0,14.0,96,-99.99,,,-99.99,,2013-01-30 17:33:00,
2013-01-30 12:43:00,32.0,31.0,29.26,WNW,300,6.0,14.0,96,-99.99,,,-99.99,,2013-01-30 17:43:00,
2013-01-30 12:53:00,32.0,31.0,29.26,NW,315,8.0,14.0,97,-99.99,,,-99.99,,2013-01-30 17:53:00,
2013-01-30 13:03:00,32.0,31.0,29.25,NW,305,5.0,11.0,97,-99.99,,,-99.99,,2013-01-30 18:03:00,
2013-01-30 13:13:00,32.0,31.0,29.25,NW,305,5.0,11.0,97,-99.99,,,-99.99,,2013-01-30 18:13:00,
2013-01-30 13:23:00,31.0,31.0,29.23,NNW,330,9.0,16.0,97,-99.99,,,-99.99,,2013-01-30 18:23:00,
2013-01-30 13:33:00,31.0,31.0,29.20,North,350,7.0,20.0,98,-99.99,,,-99.99,,2013-01-30 18:33:00,
2013-01-30 13:43:00,31.0,31.0,29.20,North,350,7.0,20.0,98,-99.99,,,-99.99,,2013-01-30 18:43:00,
2013-01-30 13:52:00,31.0,31.0,29.18,North,0,8.0,16.0,98,-99.99,,,-99.99,,2013-01-30 18:52:00,
2013-01-30 14:03:00,31.0,31.0,29.17,NNW,335,7.0,19.0,98,-99.99,,,-99.99,,2013-01-30 19:03:00,
2013-01-30 14:13:00,31.0,31.0,29.17,NNW,335,7.0,19.0,98,-99.99,,,-99.99,,2013-01-30 19:13:00,
2013-01-30 14:22:00,31.0,31.0,29.16,North,350,9.0,19.0,98,-99.99,,,-99.99,,2013-01-30 19:22:00,
2013-01-30 14:33:00,31.0,31.0,29.16,North,0,4.0,16.0,98,-99.99,,,-99.99,,2013-01-30 19:33:00,
2013-01-30 14:43:00,31.0,31.0,29.16,North,0,4.0,16.0,98,-99.99,,,-99.99,,2013-01-30 19:43:00,
2013-01-30 14:52:00,31.0,30.0,29.16,North,0,6.0,18.0,98,-99.99,,,-99.99,,2013-01-30 19:52:00,
2013-01-30 15:03:00,30.0,30.0,29.14,North,350,9.0,19.0,99,-99.99,,,-99.99,,2013-01-30 20:03:00,
2013-01-30 15:12:00,30.0,30.0,29.14,North,350,9.0,19.0,99,-99.99,,,-99.99,,2013-01-30 20:12:00,
2013-01-30 15:22:00,29.0,29.0,29.12,NNW,345,8.0,21.0,99,-99.99,,,-99.99,,2013-01-30 20:22:00,
2013-01-30 15:33:00,29.0,29.0,29.11,North,350,8.0,22.0,99,-99.99,,,-99.99,,2013-01-30 20:33:00,
2013-01-30 15:42:00,29.0,29.0,29.11,North,350,8.0,22.0,99,-99.99,,,-99.99,,2013-01-30 20:42:00,
2013-01-30 15:52:00,29.0,29.0,29.10,North,350,7.0,19.0,99,-99.99,,,-99.99,,2013-01-30 20:52:00,
2013-01-30 16:04:00,29.0,29.0,29.12,North,5,6.0,16.0,99,-99.99,,,-99.99,,2013-01-30 21:04:00,
2013-01-30 16:12:00,29.0,29.0,29.12,North,5,6.0,16.0,99,-99.99,,,-99.99,,2013-01-30 21:12:00,
2013-01-30 16:23:00,28.0,28.0,29.12,NNW,340,8.0,15.0,99,-99.99,,,-99.99,,2013-01-30 21:23:00,
2013-01-30 16:32:00,28.0,28.0,29.12,NNW,335,9.0,17.0,99,-99.99,,,-99.99,,2013-01-30 21:32:00,
2013-01-30 16:43:00,28.0,28.0,29.12,NNW,335,9.0,17.0,99,-99.99,,,-99.99,,2013-01-30 21:43:00,
2013-01-30 16:52:00,28.0,27.0,29.12,NNW,340,7.0,19.0,99,-99.99,,,-99.99,,2013-01-30 21:52:00,
2013-01-30 17:03:00,27.0,27.0,29.12,NW,320,9.0,20.0,99,-99.99,,,-99.99,,2013-01-30 22:03:00,
2013-01-30 17:12:00,27.0,27.0,29.12,NW,320,9.0,20.0,99,-99.99,,,-99.99,,2013-01-30 22:12:00,
2013-01-30 17:22:00,26.0,26.0,29.11,NNW,330,11.0,21.0,99,-99.99,,,-99.99,,2013-01-30 22:22:00,
2013-01-30 17:32:00,26.0,26.0,29.11,NNW,340,10.0,18.0,99,-99.99,,,-99.99,,2013-01-30 22:32:00,
2013-01-30 17:42:00,26.0,26.0,29.11,NNW,340,10.0,18.0,99,-99.99,,,-99.99,,2013-01-30 22:42:00,
2013-01-30 17:52:00,26.0,25.0,29.12,NNW,340,9.0,18.0,99,-99.99,,,-99.99,,2013-01-30 22:52:00,
2013-01-30 18:03:00,26.0,25.0,29.11,North,350,6.0,20.0,99,-99.99,,,-99.99,,2013-01-30 23:03:00,
2013-01-30 18:12:00,26.0,25.0,29.11,North,350,6.0,20.0,99,-99.99,,,-99.99,,2013-01-30 23:12:00,
2013-01-30 18:22:00,25.0,25.0,29.11,NNW,340,8.0,18.0,99,-99.99,,,-99.99,,2013-01-30 23:22:00,
2013-01-30 18:33:00,25.0,25.0,29.08,North,0,14.0,25.0,99,-99.99,,,-99.99,,2013-01-30 23:33:00,
2013-01-30 18:42:00,25.0,25.0,29.08,North,0,14.0,25.0,99,-99.99,,,-99.99,,2013-01-30 23:42:00,
2013-01-30 18:52:00,24.0,24.0,29.07,North,5,10.0,22.0,99,-99.99,,,-99.99,,2013-01-30 23:52:00,
2013-01-30 19:02:00,24.0,24.0,29.08,NNW,340,7.0,19.0,99,-99.99,,,-99.99,,2013-01-31 00:02:00,
2013-01-30 19:11:00,24.0,24.0,29.08,NNW,340,7.0,19.0,99,-99.99,,,-99.99,,2013-01-31 00:11:00,
2013-01-30 19:22:00,24.0,23.0,29.10,NW,320,7.0,19.0,98,-99.99,,,-99.99,,2013-01-31 00:22:00,
2013-01-30 19:32:00,23.0,23.0,29.08,NNW,345,9.0,21.0,98,-99.99,,,-99.99,,2013-01-31 00:32:00,
2013-01-30 19:42:00,23.0,23.0,29.08,NNW,345,9.0,21.0,98,-99.99,,,-99.99,,2013-01-31 00:42:00,
2013-01-30 19:53:00,23.0,23.0,29.08,NNW,345,12.0,24.0,98,-99.99,,,-99.99,,2013-01-31 00:53:00,
2013-01-30 20:02:00,23.0,22.0,29.08,NNW,335,7.0,24.0,98,-99.99,,,-99.99,,2013-01-31 01:02:00,
2013-01-30 20:12:00,22.0,22.0,29.09,NW,320,7.0,16.0,98,-99.99,,,-99.99,,2013-01-31 01:12:00,
2013-01-30 20:22:00,22.0,22.0,29.09,NW,320,7.0,16.0,98,-99.99,,,-99.99,,2013-01-31 01:22:00,
2013-01-30 20:32:00,22.0,21.0,29.09,NNW,335,12.0,21.0,97,-99.99,,,-99.99,,2013-01-31 01:32:00,
2013-01-30 20:42:00,22.0,21.0,29.09,NNW,335,12.0,21.0,97,-99.99,,,-99.99,,2013-01-31 01:42:00,
2013-01-30 20:50:00,20.0,19.0,29.08,NW,315,7.0,16.0,96,-99.99,,,-99.99,,2013-01-31 01:50:00,
2013-01-30 20:52:00,22.0,21.0,29.10,North,350,9.0,20.0,97,-99.99,,,-99.99,,2013-01-31 01:52:00,
2013-01-30 21:01:00,21.0,20.0,29.10,NNW,340,10.0,24.0,97,-99.99,,,-99.99,,2013-01-31 02:01:00,
2013-01-30 21:12:00,21.0,20.0,29.10,NNW,340,10.0,24.0,97,-99.99,,,-99.99,,2013-01-31 02:12:00,
2013-01-30 21:22:00,20.0,20.0,29.09,NNW,330,9.0,17.0,96,-99.99,,,-99.99,,2013-01-31 02:22:00,
2013-01-30 21:32:00,20.0,19.0,29.08,NW,315,7.0,16.0,96,-99.99,,,-99.99,,2013-01-31 02:32:00,
2013-01-30 21:42:00,20.0,19.0,29.08,NW,315,7.0,16.0,96,-99.99,,,-99.99,,2013-01-31 02:42:00,
2013-01-30 22:03:00,19.0,18.0,29.08,North,350,6.0,23.0,95,-99.99,,,-99.99,,2013-01-31 03:03:00,
2013-01-30 22:11:00,19.0,18.0,29.08,North,350,6.0,23.0,95,-99.99,,,-99.99,,2013-01-31 03:11:00,
2013-01-30 22:22:00,18.0,17.0,29.09,NNW,345,9.0,24.0,95,-99.99,,,-99.99,,2013-01-31 03:22:00,
2013-01-30 22:32:00,18.0,17.0,29.10,North,5,9.0,16.0,95,-99.99,,,-99.99,,2013-01-31 03:32:00,
2013-01-30 22:42:00,18.0,17.0,29.10,North,5,9.0,16.0,95,-99.99,,,-99.99,,2013-01-31 03:42:00,
2013-01-30 22:51:00,17.0,16.0,29.11,NW,315,11.0,19.0,94,-99.99,,,-99.99,,2013-01-31 03:51:00,
2013-01-30 23:02:00,16.0,15.0,29.11,NW,315,10.0,22.0,94,-99.99,,,-99.99,,2013-01-31 04:02:00,
2013-01-30 23:11:00,16.0,15.0,29.11,NW,315,10.0,22.0,94,-99.99,,,-99.99,,2013-01-31 04:11:00,
2013-01-30 23:22:00,16.0,15.0,29.11,NNW,335,9.0,23.0,94,-99.99,,,-99.99,,2013-01-31 04:22:00,
2013-01-30 23:32:00,15.0,14.0,29.10,NW,320,8.0,21.0,93,-99.99,,,-99.99,,2013-01-31 04:32:00,
2013-01-30 23:42:00,15.0,14.0,29.10,NW,320,8.0,21.0,93,-99.99,,,-99.99,,2013-01-31 04:42:00,
2013-01-30 23:50:00,14.0,12.0,29.11,NW,325,9.0,17.0,92,-99.99,,,-99.99,,2013-01-31 04:50:00,
2013-01-30 23:51:00,15.0,14.0,29.10,WNW,295,9.0,16.0,93,-99.99,,,-99.99,,2013-01-31 04:51:00,